Natchez, MS

12:58 AM CST on November 18, 2019 (GMT -0600)
Hardy-Anders-Adams County

Weather History for KHEZ - September, 2019

Change the Weather History Date:

Friday, September 6, 2019

  Actual Average Record
Temperature  
Mean Temperature 83 °F -  
Max Temperature 95 °F 88 °F 98 °F (1947)
Min Temperature 71 °F 68 °F 51 °F (2011)
Cooling Degree Days 18    
Growing Degree Days 33 (Base 50)    
Moisture  
Dew Point 72 °F    
Average Humidity 70    
Maximum Humidity 97    
Minimum Humidity 43    
Precipitation  
Precipitation 0.00 in - - ()
Sea Level Pressure  
Sea Level Pressure 30.02 in    
Wind  
Wind Speed 2 mph (NNE)    
Max Wind Speed 10 mph    
Max Gust Speed -    
Visibility 9 miles    
Events      
Averages and records for this station are not official NWS values.
T = Trace of Precipitation, MM = Missing Value Source: NWS Daily Summary

Daily Weather History Graph

Daily Weather History Graph

Search for Another Location

Airport or City:

Astronomy

Sep. 06, 2019 Rise Set
Actual Time 6:43 AM CDT 7:22 PM CDT
Civil Twilight 6:19 AM CDT 7:47 PM CDT
Nautical Twilight 5:50 AM CDT 8:16 PM CDT
Astronomical Twilight 5:20 AM CDT 8:45 PM CDT
Moon 2:24 PM CDT (9/6) 12:06 AM CDT (9/6)
Length of Visible Light 13h 28m
Length of Day
12h 39m
First Quarter, 56% of the Moon is Illuminated
Sep 6
First Quarter
Sep 13
Full
Sep 21
Last Quarter
Sep 28
New
Oct 5
First Quarter

Hourly Weather History & Observations

Time (CDT) Temp. Heat Index Dew Point Humidity Pressure Visibility Wind Dir Wind Speed Gust Speed Precip Events Conditions
12:56 AM 75.0 °F - 73.0 °F 94% 30.01 in 8.0 mi Calm Calm - N/A   Clear
1:56 AM 73.9 °F - 73.0 °F 97% 30.02 in 10.0 mi Calm Calm - N/A   Clear
2:56 AM 73.9 °F - 72.0 °F 93% 30.01 in 10.0 mi Calm Calm - N/A   Clear
3:56 AM 73.9 °F - 72.0 °F 93% 30.01 in 10.0 mi Calm Calm - N/A   Clear
4:56 AM 73.0 °F - 71.1 °F 93% 30.01 in 10.0 mi Calm Calm - N/A   Clear
5:56 AM 71.1 °F - 70.0 °F 96% 30.02 in 7.0 mi Calm Calm - N/A   Clear
6:56 AM 72.0 °F - 71.1 °F 97% 30.04 in 9.0 mi Calm Calm - N/A   Clear
7:56 AM 75.0 °F - 72.0 °F 90% 30.06 in 10.0 mi Calm Calm - N/A   Clear
8:56 AM 82.0 °F 87.9 °F 73.9 °F 76% 30.07 in 10.0 mi Calm Calm - N/A   Clear
9:56 AM 86.0 °F 93.8 °F 73.9 °F 67% 30.07 in 6.0 mi Calm Calm - N/A   Haze
10:56 AM 89.1 °F 95.0 °F 71.1 °F 55% 30.07 in 10.0 mi NW 5.8 mph - N/A   Clear
11:56 AM 91.9 °F 97.4 °F 70.0 °F 48% 30.06 in 10.0 mi North 8.1 mph - N/A   Clear
12:27 PM 91.4 °F 96.8 °F 69.8 °F 49% 30.06 in 1.8 mi NNE 5.8 mph - N/A   Haze
12:40 PM 93.2 °F 98.8 °F 69.8 °F 46% 30.06 in 10.0 mi NNW 10.4 mph - N/A   Clear
12:56 PM 93.0 °F 100.7 °F 72.0 °F 50% 30.04 in 10.0 mi NNE 8.1 mph - N/A   Clear
1:56 PM 93.0 °F 99.0 °F 70.0 °F 47% 30.03 in 10.0 mi Variable 4.6 mph - N/A   Clear
2:56 PM 95.0 °F 101.3 °F 70.0 °F 44% 30.00 in 10.0 mi Variable 4.6 mph - N/A   Clear
3:56 PM 95.0 °F 100.7 °F 69.1 °F 43% 29.99 in 10.0 mi Calm Calm - N/A   Clear
4:56 PM 95.0 °F 100.7 °F 69.1 °F 43% 29.97 in 10.0 mi NE 5.8 mph - N/A   Clear
5:56 PM 93.9 °F 99.1 °F 69.1 °F 44% 29.97 in 10.0 mi NE 4.6 mph - N/A   Clear
6:56 PM 90.0 °F 99.0 °F 73.9 °F 59% 29.97 in 10.0 mi East 3.5 mph - N/A   Clear
7:56 PM 84.0 °F 91.9 °F 75.0 °F 74% 29.98 in 10.0 mi Calm Calm - N/A   Clear
8:56 PM 81.0 °F 86.2 °F 73.9 °F 79% 29.99 in 10.0 mi Calm Calm - N/A   Clear
9:56 PM 79.0 °F - 73.9 °F 84% 30.00 in 10.0 mi Calm Calm - N/A   Clear
10:56 PM 78.1 °F - 73.0 °F 84% 30.00 in 10.0 mi Calm Calm - N/A   Clear